Location: Emory University Observatory
(33.7903°N, 84.3267°W)
Time: 09:02:48
(UTC-04:00)

Tiangong 2 - Pass Details

Date: 10 October 2017
Orbit: 388 x 392 km, 42.8° (Epoch: 18 October)

Event Time Altitude Azimuth Distance (km) Brightness Sun altitude
Exits shadow 07:06:00 - 293° (WNW) 1,498 3.4 -7.6°
Reaches altitude 10° 07:06:15 10° 295° (WNW) 1,419 3.3 -7.5°
Maximum altitude 07:08:45 21° 347° (NNW) 949 2.9 -7.0°
Drops below altitude 10° 07:11:16 10° 39° (NE) 1,422 4.5 -6.5°
Sets 07:13:41 0° 56° (NE) 2,280 5.9 -6.0°
